Wind_Speed
23 25 30 37 44 50 56 62 66 68 73 78 83 88 93 98 104 109 114 118 122 126 130 133 135 136 137 141 146 148 148 145 142 139 136 134 132 130 129 128 125 122 118 115 113 111 109 108 107 105 104 102 99 96 96 98 99 99 97 96 95 95 94 93 91 89 89 89 90 91 91 91 90 89 89 89 88 88 88 88 88 88 88 87 86 86
22 22 24 29 35 43 49 55 61 65 68 72 77 82 86 91 96 102 108 113 116 118 120 124 127 130 132 135 140 144 146 147 147 144 141 137 135 133 131 130 128 127 124 120 116 113 111 110 109 107 106 104 101 99 98 98 99 100 99 97 95 96 96 95 93 92 92 92 93 93 94 93 93 92 91 91 91 91 90 90 89 89 89 89 89 89
22 21 22 24 28 34 41 48 54 60 64 68 71 75 80 84 89 94 100 106 111 113 115 117 119 121 125 130 134 138 140 143 145 147 146 143 140 136 134 132 131 129 127 125 122 117 114 111 111 109 108 106 104 102 100 98 99 102 102 100 100 101 100 97 94 94 94 94 95 96 96 95 94 93 93 93 93 93 93 92 92 92 92 92 92 92
25 21 20 22 24 27 33 39 46 52 58 63 67 71 75 79 83 88 93 98 103 106 109 112 114 114 117 121 126 132 135 137 139 142 145 146 145 142 138 135 133 131 130 128 126 123 119 114 112 111 110 108 106 104 102 101 101 104 105 104 104 104 102 99 97 95 95 95 96 96 96 96 95 95 95 95 96 96 95 95 95 95 94 94 93 93
34 25 19 18 19 21 25 30 36 43 50 56 62 66 70 74 78 82 87 91 94 98 102 107 110 111 113 116 118 124 129 133 135 137 139 141 144 145 144 140 136 134 132 130 129 127 125 121 116 113 111 110 108 106 104 103 104 105 106 106 107 106 103 101 100 98 97 97 97 97 97 96 96 96 96 97 97 96 96 95 95 95 95 94 93 93
46 36 26 19 15 16 17 20 25 32 39 46 52 59 64 69 73 76 81 85 89 92 95 100 104 105 108 112 113 116 120 125 130 133 135 136 138 141 144 144 142 139 135 133 131 129 128 126 123 118 114 111 110 108 107 105 105 106 107 107 107 107 105 103 102 101 100 99 99 99 99 98 97 97 97 97 97 96 96 96 96 95 95 95 94 94
53 46 37 28 20 15 14 14 16 21 27 34 41 48 55 61 67 70 74 79 83 86 89 93 96 96 100 106 108 111 113 117 122 127 130 133 134 135 137 140 143 143 141 138 134 132 130 128 127 125 122 118 114 110 108 107 107 108 108 108 108 108 107 105 104 103 102 101 101 101 100 100 99 99 99 99 98 97 97 96 97 97 96 96 96 96
58 50 43 36 29 22 16 13 13 14 17 22 29 37 44 51 58 63 68 72 76 80 83 86 90 90 92 97 102 105 108 110 114 118 121 126 129 131 132 134 137 140 143 143 140 137 134 131 129 127 126 124 121 117 112 109 108 109 110 110 109 109 108 108 106 104 103 103 102 102 102 101 100 100 100 99 99 98 98 97 97 98 98 98 98 97
66 57 49 41 35 29 23 18 14 12 13 15 19 26 33 40 47 53 59 64 69 73 76 81 86 87 85 89 95 99 101 105 108 110 112 117 122 126 128 130 131 134 137 140 142 142 140 138 134 131 129 127 126 124 120 115 111 110 110 110 111 111 110 110 109 107 105 104 103 103 104 104 102 101 100 99 99 99 99 100 100 99 99 99 99 98
74 67 59 50 43 37 31 26 21 16 12 12 14 17 23 29 36 43 49 55 60 64 69 76 82 80 74 77 88 91 92 96 101 104 107 111 115 119 122 125 128 130 131 132 135 137 139 140 139 137 134 131 128 126 124 122 118 114 112 111 112 112 112 111 110 109 108 106 105 105 106 106 105 103 102 101 100 100 100 100 100 100 99 99 99 98
78 74 68 61 53 47 41 36 31 25 19 15 13 13 16 20 26 33 39 45 51 55 62 68 71 69 64 67 79 86 88 90 95 101 104 108 111 114 116 119 123 125 127 128 129 130 132 133 134 135 136 135 132 129 126 124 123 121 118 116 114 114 113 113 112 112 111 109 108 108 109 109 108 106 105 104 102 101 101 100 99 98 98 97 97 97
81 77 73 68 62 57 51 45 39 33 28 23 19 15 13 15 18 24 29 36 41 46 52 58 61 63 61 63 74 83 87 89 92 96 100 104 108 110 112 114 117 121 123 124 125 126 127 127 127 129 132 134 134 133 130 127 125 124 123 121 119 118 117 116 115 114 113 112 111 111 111 111 110 109 108 106 104 103 102 101 99 98 97 96 96 95
82 79 76 72 67 63 58 53 47 40 35 30 25 21 17 15 14 17 21 26 32 37 42 48 53 57 56 57 68 77 82 85 86 89 94 99 104 108 110 111 114 117 119 121 122 122 123 123 123 125 127 130 132 133 133 132 129 126 125 124 123 122 121 119 118 117 116 115 114 113 113 113 111 110 109 107 106 105 104 103 102 100 98 97 96 96
80 79 77 74 70 66 61 58 54 49 43 38 32 26 21 18 16 15 16 19 23 28 33 38 43 49 50 53 63 72 75 78 81 82 86 92 97 103 108 110 112 114 116 118 119 119 120 120 121 122 123 125 127 129 131 133 132 130 127 126 125 124 123 122 120 119 118 117 116 115 115 114 113 111 110 109 107 106 105 103 103 101 99 98 97 96
78 79 77 75 72 69 64 60 56 53 49 45 40 34 28 23 19 16 15 15 17 20 25 30 35 41 44 48 58 65 68 72 76 77 79 84 90 95 101 106 108 111 113 114 115 116 116 117 118 119 120 121 122 123 126 128 130 131 131 129 126 125 124 123 121 120 118 117 116 116 115 114 114 112 111 110 108 107 105 103 102 100 99 98 96 95
77 77 78 77 74 71 68 63 58 54 51 49 45 40 35 30 24 20 17 14 14 15 18 23 28 33 37 42 50 55 59 64 68 71 73 77 83 89 94 98 101 104 107 109 110 111 112 113 115 115 116 116 117 118 120 122 124 127 129 129 128 126 125 123 122 121 119 117 116 116 115 114 114 112 111 110 108 107 106 104 102 101 99 97 95 93
75 75 76 77 77 74 71 68 63 58 54 50 47 44 40 36 31 26 21 17 14 13 14 17 21 26 29 35 42 45 50 55 59 63 67 70 75 81 86 90 94 98 101 103 105 106 108 110 111 112 113 113 113 114 115 117 119 121 123 124 125 124 123 122 121 120 119 118 117 115 115 114 113 112 110 109 108 108 106 105 103 102 101 99 97 95
73 74 74 75 76 76 74 72 69 65 60 54 49 47 44 40 36 32 26 21 17 14 13 14 16 19 23 28 34 36 40 46 50 54 59 63 67 71 77 82 87 91 95 98 101 102 104 106 108 109 110 110 110 111 112 113 115 116 117 118 118 118 118 118 118 118 117 116 115 114 113 112 111 110 109 107 107 106 105 103 103 102 102 101 100 98
70 72 73 73 74 75 75 74 72 69 66 61 56 50 46 43 40 36 32 28 23 18 14 13 13 15 18 21 25 29 32 37 42 46 51 55 59 63 68 74 79 84 89 94 96 98 100 102 104 106 107 108 108 108 110 111 111 112 112 112 113 113 113 113 113 112 112 111 110 110 109 108 107 107 106 105 104 104 103 101 101 100 100 100 99 99
66 68 70 72 73 73 73 74 73 71 69 66 63 58 52 47 43 40 37 33 28 25 20 16 13 12 14 16 19 22 26 31 36 40 43 47 52 57 62 67 71 76 83 88 91 94 96 98 100 102 104 105 106 107 108 108 108 108 108 108 108 109 109 109 108 108 107 106 106 105 104 104 103 103 102 102 101 100 100 100 99 98 98 98 97 97
63 65 67 70 72 72 72 72 73 73 71 69 67 64 60 54 49 45 41 37 32 29 26 22 18 15 13 14 15 18 21 26 30 34 37 40 45 50 56 60 64 69 75 82 86 89 92 94 97 99 101 102 103 105 106 106 106 105 105 106 106 106 106 105 105 105 104 103 102 102 101 101 100 100 99 98 98 97 97 98 97 97 97 97 96 96
60 62 64 66 69 71 70 70 70 72 72 72 70 67 64 61 57 51 46 42 38 33 29 25 20 16 14 12 13 15 18 21 25 29 31 33 37 43 49 53 57 62 68 75 80 84 88 90 93 96 97 98 100 101 103 103 103 103 103 104 104 104 103 103 103 102 101 101 100 100 99 98 98 97 96 96 95 95 95 95 95 95 95 95 95 96
56 58 60 62 65 67 68 68 68 69 71 72 72 70 68 65 62 58 53 48 44 39 32 27 23 19 15 12 11 11 13 16 19 22 25 27 30 35 41 47 52 56 61 67 72 77 81 85 88 91 93 94 96 98 99 100 101 102 102 102 102 102 102 101 101 100 100 99 98 98 97 97 96 95 94 94 93 93 92 92 92 93 93 93 93 94
52 55 57 59 61 64 66 66 66 67 68 70 71 71 70 68 65 63 59 54 49 44 39 34 29 25 21 16 12 9 8 9 11 14 17 21 24 28 33 40 46 51 55 60 64 68 73 78 82 85 88 90 91 93 95 96 98 99 99 99 99 99 99 99 99 99 98 98 97 97 96 95 95 94 93 92 92 91 91 91 91 91 91 92 92 92
48 50 53 56 58 60 62 64 65 65 66 67 68 69 70 69 68 65 63 59 55 50 46 42 37 31 26 22 17 12 8 4 3 5 9 14 19 23 28 33 39 44 48 53 58 61 65 70 75 79 83 85 87 88 90 92 93 94 96 96 97 97 97 97 97 97 96 96 96 95 95 94 93 93 92 91 90 90 90 90 90 89 90 90 91 92
45 47 49 51 54 56 58 60 62 63 63 64 64 66 67 68 68 67 64 62 60 56 51 47 43 38 33 27 23 19 14 8 3 2 1 6 12 19 24 28 32 36 40 45 50 54 57 62 68 73 76 79 81 83 85 87 88 90 91 92 93 94 94 94 94 94 94 94 94 94 93 93 92 91 90 90 89 89 89 88 88 89 89 89 90 91
41 43 46 48 50 52 53 55 57 59 60 61 61 62 64 66 66 67 66 64 62 59 56 51 47 43 39 34 28 23 19 14 9 6 5 1 5 11 18 23 27 30 33 37 41 46 50 55 60 66 70 73 75 77 79 81 82 84 85 86 88 89 90 91 91 92 92 92 92 92 91 91 90 89 89 88 88 88 88 88 88 88 88 89 89 90
37 39 41 44 46 48 50 51 53 55 57 58 59 60 61 63 64 65 65 65 63 61 59 55 51 47 43 38 34 28 23 19 15 10 8 7 3 4 10 16 21 25 28 32 35 39 43 48 52 57 61 64 67 69 72 73 75 77 79 80 82 84 86 87 88 89 90 90 89 89 88 88 87 87 87 86 86 87 87 87 87 87 88 88 89 89
34 35 37 39 41 44 46 48 49 52 53 55 56 57 58 60 62 62 62 62 63 62 60 58 55 51 48 44 40 36 30 25 20 16 12 10 8 6 5 8 13 18 24 28 32 35 39 42 45 48 51 55 58 61 63 66 68 70 72 74 76 78 81 83 84 86 86 86 85 85 84 83 83 83 83 84 84 85 85 86 86 86 87 87 87 88
32 33 34 36 38 39 42 44 45 48 50 51 53 54 56 57 59 59 59 59 60 61 60 58 56 54 51 48 45 41 37 32 27 22 17 13 11 9 8 7 8 12 16 21 25 29 33 36 38 40 43 45 49 52 55 58 60 63 65 67 69 72 75 77 79 80 80 80 80 79 79 78 78 79 79 80 81 82 82 83 83 84 84 85 85 86
30 31 31 33 35 36 38 40 42 44 46 48 49 51 53 54 55 56 57 57 57 57 58 58 57 55 52 50 48 44 41 38 34 30 25 20 16 13 10 8 7 8 11 14 18 21 24 27 30 32 36 39 42 44 47 49 52 54 56 59 62 65 68 71 72 72 73 73 73 72 72 73 73 74 74 75 76 77 77 78 78 79 80 80 81 82
29 29 29 30 32 34 35 36 38 40 42 44 46 48 49 51 52 53 54 55 54 54 54 55 56 55 53 50 48 46 43 41 38 36 33 29 25 20 15 12 9 7 7 8 12 15 18 21 24 27 30 33 36 38 41 43 45 47 50 53 57 59 61 62 63 63 64 64 65 65 66 66 67 67 68 69 70 70 71 71 72 73 74 75 76 77
28 28 28 28 29 31 33 34 35 37 38 40 42 44 46 48 49 49 50 52 53 52 52 51 52 53 53 51 49 46 45 42 40 38 36 34 31 28 24 19 15 11 8 6 7 9 12 15 18 21 24 26 28 31 33 35 38 41 43 46 48 49 51 52 54 55 56 57 57 58 58 59 59 60 61 62 62 63 64 65 66 68 69 70 71 73
28 27 27 27 27 28 30 32 32 33 35 37 38 40 42 44 45 46 47 49 50 50 50 49 48 48 49 50 49 47 45 43 41 39 37 34 33 31 29 27 23 19 15 11 8 7 7 9 11 14 17 19 22 24 26 28 31 33 34 36 38 40 43 45 46 47 48 48 49 49 50 50 52 53 54 54 55 56 58 59 61 63 65 66 68 70
28 27 26 26 27 27 27 29 31 31 32 34 35 36 38 41 42 43 44 45 46 48 48 49 48 46 45 46 47 47 46 44 42 40 38 35 33 31 29 28 27 25 23 20 17 13 10 8 8 9 11 13 15 18 20 22 24 26 27 29 31 33 35 36 37 37 38 39 41 42 43 45 46 47 48 49 50 52 54 56 58 60 61 62 64 66
29 28 26 25 26 26 25 27 29 29 30 31 32 33 35 37 39 40 41 42 44 45 46 46 47 46 45 43 42 43 43 44 43 41 39 37 35 33 31 29 28 26 26 25 23 21 19 17 14 12 10 10 10 11 13 15 16 18 20 22 23 25 26 27 29 30 33 35 37 38 40 41 42 44 45 46 47 50 52 54 55 56 57 58 60 62
31 30 28 25 25 26 25 24 26 28 28 28 30 31 32 33 36 37 38 39 40 42 43 43 44 45 45 43 41 39 39 39 41 41 40 38 36 34 33 31 29 28 26 26 25 24 23 22 21 19 17 15 13 11 10 9 10 12 13 15 17 18 20 22 24 27 29 31 33 34 35 37 38 40 41 43 45 47 48 49 49 50 51 52 53 55
31 31 31 28 25 26 26 23 23 25 27 27 28 30 31 31 32 34 35 36 37 38 39 40 41 42 43 43 42 39 37 35 35 36 37 37 37 36 34 32 31 29 28 26 26 25 24 23 22 22 21 20 18 16 14 12 10 8 7 7 8 10 12 14 16 18 20 23 25 27 28 30 31 33 34 35 37 38 39 40 40 41 43 44 45 47
31 31 32 31 27 26 27 25 22 21 24 27 28 29 30 29 30 31 32 33 34 35 35 36 38 39 40 41 41 39 38 35 33 32 32 33 34 34 33 33 31 30 29 27 26 25 24 23 22 21 21 20 19 18 16 15 13 12 10 9 7 6 6 7 8 10 12 15 17 19 21 22 24 26 27 29 31 32 33 35 36 38 40 41 43 45
30 31 32 33 30 27 28 28 24 20 21 26 28 30 30 28 28 29 30 30 31 32 32 31 33 35 37 38 39 38 37 36 34 32 30 29 29 29 29 29 29 29 28 27 26 25 24 23 22 21 20 19 18 16 15 14 12 11 11 9 8 7 7 8 9 10 11 13 14 16 18 20 22 24 25 27 28 30 32 34 36 37 39 41 42 44
29 30 31 33 32 30 29 29 28 24 20 22 26 30 32 30 27 27 28 28 28 30 30 29 30 31 33 34 35 35 35 34 33 32 30 29 28 27 26 26 25 25 25 24 23 22 22 21 20 20 19 18 17 16 14 13 12 11 10 9 7 5 4 6 7 7 9 11 13 14 16 18 19 21 22 24 26 28 30 31 33 35 37 39 40 42
29 28 30 31 31 31 31 30 30 29 24 21 22 26 31 33 30 28 27 27 27 28 28 28 29 29 30 31 31 31 31 31 31 30 29 28 27 27 26 25 24 23 22 22 21 20 19 18 17 16 15 14 13 12 11 10 9 8 8 7 4 1 1 3 4 6 8 10 12 13 15 16 18 20 21 23 25 27 29 31 32 34 37 38 40 42
30 28 29 31 31 31 32 32 32 31 28 25 21 22 28 32 31 31 30 27 26 26 26 27 28 29 29 29 29 28 28 28 28 28 27 27 26 26 25 25 24 23 23 22 21 20 18 18 17 16 15 14 13 12 10 9 7 5 4 4 5 7 7 6 8 10 12 14 15 16 18 20 21 23 25 27 29 30 32 34 35 37 40 42 44 45
33 31 29 30 31 30 32 34 34 31 30 28 24 22 26 29 31 33 34 31 27 26 25 26 27 29 29 29 28 27 25 25 25 25 24 24 24 24 24 24 24 24 23 23 22 21 20 19 18 17 17 17 16 15 14 13 12 11 10 8 10 13 13 13 14 16 17 19 20 21 23 24 26 28 30 32 33 35 37 38 40 41 44 46 48 49
35 36 32 31 32 32 33 36 36 33 32 30 27 25 25 27 32 36 36 34 32 30 27 25 26 28 29 29 29 28 26 25 24 23 22 22 22 23 24 24 24 25 24 24 23 22 21 20 19 18 18 18 18 18 18 18 18 18 16 15 16 19 19 19 20 21 23 24 25 26 27 28 30 32 34 36 37 39 41 43 44 46 48 50 52 54
37 40 37 33 33 34 35 38 38 35 33 31 29 27 25 27 33 38 36 34 35 34 32 29 27 27 28 29 29 29 28 27 25 23 22 22 23 23 24 24 24 25 25 25 25 24 23 23 21 20 19 19 20 20 21 22 22 23 22 21 22 23 24 25 26 27 28 29 29 31 32 33 35 37 38 40 42 43 45 47 49 51 53 55 57 59
42 45 41 36 36 36 37 40 40 38 35 33 29 27 27 30 33 37 38 36 36 36 36 34 31 29 29 29 29 29 29 28 27 26 24 24 24 24 25 25 25 26 26 26 26 26 26 26 25 23 22 21 22 23 24 25 27 27 27 27 27 28 28 29 30 31 32 33 34 35 36 37 39 41 42 44 46 47 50 51 53 55 57 59 61 63
44 44 40 38 38 36 35 39 43 41 38 35 31 29 30 32 33 37 40 39 37 36 37 37 35 34 33 32 31 30 30 29 28 27 26 26 26 25 26 26 26 27 27 27 26 27 27 28 27 26 26 25 25 26 27 29 31 31 31 31 32 33 33 34 35 35 36 37 38 39 40 42 43 44 46 47 49 51 53 55 57 58 60 62 65 66
43 41 42 45 42 36 37 44 46 42 37 37 36 34 34 35 36 39 41 40 39 39 39 38 37 37 36 35 34 33 32 31 30 29 28 28 27 27 27 28 28 28 28 27 28 28 29 30 29 29 29 29 29 29 31 33 34 34 34 35 36 36 37 39 39 40 41 42 43 44 45 47 48 49 50 52 54 55 57 59 60 62 64 66 69 71
43 40 46 53 47 38 42 49 45 37 35 39 41 39 39 41 41 42 43 42 41 41 41 39 38 37 38 38 37 36 36 35 33 33 33 32 31 30 30 30 31 31 31 30 30 31 31 32 32 32 32 33 32 33 34 36 37 37 37 38 39 39 40 41 43 44 46 48 49 50 51 52 53 55 56 58 59 61 62 63 65 67 69 71 74 76
47 45 49 52 47 42 46 47 40 34 35 40 43 42 42 44 45 45 45 44 44 44 42 40 39 39 39 39 39 39 40 39 38 37 37 36 35 34 33 34 34 35 35 34 34 34 34 35 35 35 36 36 36 36 38 38 39 40 40 40 41 42 43 44 45 47 49 51 52 54 55 56 58 60 61 63 64 65 66 67 69 71 73 75 78 80
Wind_Direction
295 279 266 257 251 247 244 244 245 243 242 241 241 241 240 240 239 239 240 241 241 241 241 242 242 242 241 241 241 240 240 240 240 240 240 239 239 239 239 240 240 240 241 241 240 240 239 239 239 239 240 241 242 243 244 246 249 251 252 254 254 254 253 252 253 253 254 255 256 258 259 259 260 261 262 263 263 264 265 266 267 268 269 270 271 271
316 298 282 268 258 252 248 245 245 245 244 242 241 241 241 241 240 240 239 240 240 241 241 241 242 241 241 241 241 241 240 240 240 240 240 240 240 239 239 239 240 240 240 240 241 240 240 239 239 239 239 240 241 242 243 244 247 250 251 252 252 252 251 251 251 253 254 256 257 258 258 259 261 262 263 264 264 265 265 266 267 268 268 269 270 271
336 315 297 282 269 259 253 249 247 245 245 244 243 242 242 241 241 241 240 240 240 240 241 241 241 241 241 241 241 241 240 240 240 240 240 240 240 239 239 239 239 239 239 240 240 241 240 240 240 240 239 239 240 241 242 243 244 247 249 250 250 251 251 250 250 252 254 256 257 258 259 260 261 262 263 264 265 265 266 266 267 268 269 270 271 272
358 339 315 295 280 268 259 254 251 248 246 246 245 244 243 242 241 241 242 241 241 241 240 241 241 241 241 241 240 241 241 240 240 240 240 240 240 240 239 239 239 239 239 239 239 240 240 240 240 240 240 240 239 240 241 242 243 245 246 249 251 252 252 252 251 252 254 255 257 259 260 261 262 263 263 264 265 265 266 267 267 268 269 270 271 272
10 3 345 316 293 277 266 259 254 251 249 248 246 246 244 243 242 241 242 242 242 241 241 241 240 240 240 240 240 240 240 240 240 240 240 240 240 239 239 239 239 239 239 239 239 239 240 240 240 240 240 240 240 239 240 241 242 244 245 247 250 252 253 252 252 252 253 255 257 259 260 261 262 263 263 264 265 265 266 267 268 268 269 270 271 272
12 9 5 350 322 294 277 266 259 255 253 251 249 248 247 246 245 243 242 243 242 242 241 241 240 239 239 240 239 239 239 239 239 239 239 240 240 239 239 239 239 239 239 239 239 239 239 239 239 239 239 240 240 240 239 239 241 242 244 245 247 250 252 253 253 252 252 254 255 257 259 261 262 262 263 264 265 265 266 267 267 268 269 270 271 272
16 12 9 6 356 333 304 282 269 261 257 254 251 250 248 248 247 246 244 244 243 243 242 242 241 239 238 239 239 239 239 238 239 239 239 239 239 239 239 239 239 239 239 239 239 239 239 239 239 239 239 240 240 240 240 239 239 241 242 244 245 248 250 252 253 253 253 253 255 257 258 260 261 262 262 263 264 265 266 266 267 268 269 270 271 271
20 18 15 12 10 3 346 321 296 277 265 259 254 252 250 249 248 247 246 245 245 244 243 243 243 241 238 239 240 239 239 239 239 239 238 239 239 239 239 239 239 239 239 239 239 239 239 239 239 239 239 240 240 240 240 240 239 240 241 242 244 245 247 250 251 252 253 254 254 256 258 259 260 261 262 262 263 264 265 266 267 268 269 269 270 271
18 19 20 19 17 15 10 359 339 314 292 275 264 257 253 251 250 249 247 247 246 245 244 244 243 241 238 239 241 240 239 239 239 239 238 238 239 239 239 239 239 239 239 239 239 239 239 239 239 239 239 240 240 240 240 240 240 240 240 241 243 244 246 247 249 251 252 253 254 255 256 257 258 259 260 261 262 263 264 265 266 267 268 269 270 271
17 17 18 20 21 21 19 15 6 352 330 304 285 271 262 256 252 250 249 248 247 246 245 244 244 243 239 238 241 241 239 238 238 238 238 238 238 238 238 238 238 239 239 239 239 239 239 239 239 239 239 239 240 240 240 241 241 240 240 241 242 243 245 246 248 250 251 252 253 254 255 256 257 258 259 260 261 262 264 265 266 267 268 269 270 271
18 18 17 17 19 21 22 20 16 9 358 342 320 297 279 267 259 254 251 250 249 247 246 246 246 246 241 238 240 242 240 238 237 237 237 236 237 237 237 237 238 238 238 238 238 239 239 239 239 239 238 238 239 239 240 241 241 241 241 241 242 243 244 246 247 248 250 251 252 253 254 255 256 257 258 259 260 261 263 264 265 266 267 267 268 269
18 19 18 18 17 17 20 21 20 17 10 1 349 333 309 287 272 263 257 254 252 250 248 248 248 246 241 236 238 239 239 238 235 234 234 234 235 236 236 235 236 237 237 237 237 238 238 238 238 238 238 238 238 238 239 240 240 241 241 242 243 243 244 245 246 247 248 249 250 251 253 254 255 256 258 259 260 260 261 262 263 264 265 266 266 267
19 19 19 19 19 17 17 18 19 20 18 13 4 352 337 319 298 280 268 261 256 254 251 250 249 248 243 237 237 239 239 239 237 234 233 233 232 233 234 234 234 235 236 236 236 236 237 237 237 237 238 237 237 237 238 239 240 241 241 242 243 244 245 245 246 247 248 249 250 250 251 253 254 255 257 258 258 259 260 261 262 262 263 264 265 266
19 20 20 20 20 20 19 17 17 18 18 17 14 7 357 342 326 306 286 272 263 257 253 251 250 249 245 239 238 238 238 239 239 236 234 234 233 232 232 232 232 233 234 234 235 235 236 236 236 237 237 237 237 237 237 238 239 240 241 242 242 243 245 246 247 247 248 249 250 250 251 252 253 254 255 256 257 258 259 260 261 262 262 263 264 265
18 20 21 21 22 22 22 20 19 18 17 17 16 14 10 1 347 330 311 291 275 263 256 252 250 249 246 241 239 239 239 239 239 238 236 234 234 234 233 233 232 232 233 233 234 234 234 235 236 236 237 237 237 237 237 238 238 239 240 241 242 243 244 245 246 248 248 249 250 251 251 252 253 254 255 256 257 258 258 259 260 261 262 263 264 265
17 18 20 22 22 22 23 23 22 21 19 18 17 15 14 10 3 351 335 316 297 279 265 256 251 249 247 244 243 242 240 239 239 239 237 235 234 234 234 234 234 233 233 233 233 234 234 235 236 236 236 237 237 238 238 238 238 239 240 240 242 243 244 245 246 247 248 249 250 251 252 252 253 254 255 256 257 258 258 259 260 261 262 262 263 263
16 17 18 20 22 23 23 23 24 24 23 21 19 18 16 14 11 6 355 339 322 303 284 268 258 252 248 247 247 246 243 242 240 238 237 236 234 233 233 233 234 234 234 234 233 233 233 234 235 236 236 237 237 238 238 238 239 239 239 240 241 242 243 244 245 246 247 248 250 251 251 252 253 254 255 255 256 257 258 259 260 260 261 262 262 262
16 17 17 18 20 22 23 23 23 24 24 24 23 22 20 18 15 12 8 1 348 331 308 286 270 260 252 248 249 248 245 244 243 239 237 236 234 234 233 232 232 232 234 234 233 233 233 233 234 234 235 236 236 237 238 238 239 239 240 240 241 242 243 244 245 246 247 248 249 250 251 252 252 253 254 255 256 257 258 258 259 260 261 261 262 262
16 17 17 17 18 20 22 23 23 23 23 24 24 24 24 23 21 17 14 11 4 355 338 313 291 273 262 255 253 250 245 244 244 241 238 236 234 232 233 233 231 230 231 232 233 233 232 232 233 234 234 235 236 236 237 238 239 239 240 241 241 242 243 243 244 245 246 247 248 249 250 251 252 252 253 254 255 256 257 258 259 260 261 261 262 263
16 17 17 17 18 18 20 22 24 24 23 23 23 24 24 24 25 24 21 16 11 7 -0 345 325 301 282 270 262 255 248 243 243 242 239 236 234 232 231 231 230 229 229 230 231 232 232 232 232 233 233 234 234 235 236 237 238 239 240 240 241 242 242 243 244 245 246 247 247 248 249 250 251 252 253 253 255 256 257 258 259 260 261 262 263 263
16 16 16 17 17 17 18 20 22 23 24 23 23 23 24 24 24 25 25 22 19 15 9 360 348 330 311 293 277 265 254 247 243 242 239 236 233 232 230 230 229 228 228 229 229 229 230 230 231 232 232 233 233 234 235 236 237 238 239 240 241 242 242 243 244 244 245 246 247 248 248 249 250 251 252 253 254 255 257 258 259 260 261 262 263 264
14 15 16 16 17 17 18 18 20 21 23 24 23 23 23 24 24 24 24 24 23 22 17 10 2 348 330 310 289 272 260 252 248 244 240 236 233 231 229 228 227 227 228 228 228 228 228 229 230 230 231 232 233 234 235 236 237 238 239 240 240 241 242 243 243 244 245 246 247 247 248 249 250 251 252 253 254 255 256 258 259 260 261 262 263 264
13 14 15 16 16 17 18 18 19 20 21 23 24 23 23 23 24 24 24 23 23 23 21 18 15 9 356 336 311 287 269 257 251 247 243 237 232 229 228 226 224 224 226 227 228 229 228 228 229 230 231 231 232 233 234 235 236 237 238 239 240 241 242 242 243 244 245 245 246 247 248 249 250 251 252 253 254 255 256 257 258 260 261 262 263 264
13 13 14 15 16 17 18 18 19 19 20 21 22 23 23 23 23 23 24 24 23 23 23 22 20 18 13 3 347 322 293 269 254 247 242 235 228 225 224 224 223 221 222 224 226 228 229 229 229 229 230 231 232 232 233 234 235 236 238 239 240 241 242 242 243 244 245 245 246 247 248 249 250 251 252 252 253 254 255 257 258 259 260 262 262 263
12 12 13 14 15 16 18 18 18 19 19 20 21 22 23 24 23 23 23 24 24 24 23 23 23 21 20 17 12 3 345 314 270 247 239 233 226 219 218 220 221 220 219 221 222 224 227 229 229 230 230 231 232 232 233 234 235 236 237 238 239 240 241 242 243 244 245 246 246 247 248 249 250 251 252 252 253 254 255 256 257 258 259 261 262 263
9 11 12 12 14 15 17 18 19 19 19 20 20 21 22 23 24 23 23 23 24 24 24 24 24 23 22 22 21 18 13 9 28 65 234 235 227 219 213 212 214 214 216 218 220 220 223 226 228 229 231 231 232 232 233 234 235 236 237 238 239 240 241 243 244 244 245 246 247 248 248 249 250 251 252 253 254 255 256 256 257 258 259 260 261 263
7 8 10 11 12 14 15 17 18 18 19 19 20 20 21 21 22 23 24 24 23 24 25 25 25 26 26 25 24 24 22 23 34 58 74 91 227 221 213 207 205 206 208 212 216 218 219 222 226 228 230 232 233 233 234 235 236 237 238 239 240 240 241 243 243 244 245 246 247 248 249 250 251 252 252 253 254 255 256 257 257 258 259 260 261 262
5 6 8 9 9 11 13 15 16 17 17 18 19 19 20 20 20 21 22 23 24 24 25 25 26 27 28 28 28 29 29 29 32 44 65 80 101 197 209 205 202 200 201 204 208 212 216 220 224 227 230 232 233 234 235 236 237 238 239 239 240 241 242 243 243 244 245 246 247 248 249 250 251 252 253 254 255 256 257 258 258 259 260 261 261 262
2 4 6 7 8 8 10 12 14 15 16 17 18 18 18 19 19 20 21 22 23 24 24 25 25 27 28 29 30 31 32 34 35 39 48 65 82 103 147 184 195 198 199 201 204 207 211 216 221 225 228 231 233 235 236 237 237 238 239 240 241 241 242 243 244 244 245 246 248 249 250 251 252 253 254 255 256 257 258 258 259 260 261 261 262 263
358 1 3 5 6 7 7 9 11 13 14 15 17 18 18 18 19 20 20 21 22 23 24 24 25 27 28 29 30 32 34 35 38 41 44 50 62 78 98 126 162 185 195 201 204 208 211 214 218 222 226 230 233 235 236 237 238 238 239 240 241 242 243 243 244 245 246 247 248 250 251 252 253 254 255 256 256 257 258 259 260 261 262 262 263 264
351 356 359 1 3 4 5 6 8 10 11 13 15 16 17 18 18 19 20 21 21 21 22 24 25 27 28 30 31 32 34 36 38 41 44 47 51 59 72 91 118 153 178 192 200 206 211 215 218 221 224 228 231 233 235 237 238 239 240 241 242 243 243 244 245 246 247 248 250 251 252 252 253 254 255 256 257 257 258 259 261 262 262 263 264 265
343 348 354 357 359 -0 1 3 5 7 9 10 12 14 15 16 17 18 19 20 21 21 21 22 23 25 27 29 32 33 34 36 39 42 44 46 49 53 58 68 83 107 141 173 190 201 207 211 215 218 222 225 228 229 232 234 235 237 238 240 241 242 243 245 246 247 248 249 250 251 252 253 253 254 255 256 257 258 259 260 261 262 263 264 265 266
336 340 346 351 354 356 357 359 1 3 5 7 8 11 13 14 15 16 17 18 20 20 21 22 22 23 25 27 30 33 35 37 40 43 46 48 51 53 55 59 66 77 95 124 158 184 199 206 210 215 218 222 225 227 229 232 234 235 237 238 240 242 244 245 246 247 248 249 250 251 251 252 253 254 255 257 258 259 260 261 262 263 264 265 265 266
329 333 337 342 348 352 353 354 356 359 0 3 5 7 9 11 12 13 15 17 18 19 20 21 22 22 23 24 26 30 33 37 40 42 46 50 53 56 59 61 64 67 74 84 103 132 164 186 198 205 211 215 218 221 224 226 229 231 233 236 238 239 241 242 243 244 246 247 248 250 251 252 253 255 256 257 259 260 261 262 262 263 264 265 266 267
321 326 330 334 339 346 349 349 350 354 355 357 360 3 4 7 9 10 12 14 16 17 19 20 22 22 22 22 23 25 29 33 37 41 44 47 51 55 60 64 68 71 74 78 83 91 104 125 151 174 189 198 205 210 214 217 220 222 224 226 228 231 233 235 238 240 242 244 246 248 249 251 252 254 255 257 258 260 261 261 262 264 265 267 268 269
312 318 323 327 330 336 343 345 344 347 350 351 353 357 360 2 4 6 8 11 12 14 16 18 20 22 22 22 22 23 25 28 32 36 40 44 47 50 54 59 64 69 74 77 81 84 89 94 101 113 128 148 166 182 193 200 205 209 212 215 218 221 225 228 232 235 238 241 244 246 248 251 253 255 257 258 259 260 262 263 265 268 269 271 272 273
307 311 316 321 324 327 334 340 340 339 343 345 345 348 352 356 359 1 4 6 8 10 12 15 18 19 21 21 21 22 23 24 27 30 34 38 42 45 49 53 57 61 66 71 75 79 83 86 89 92 96 101 108 119 135 155 173 187 198 205 211 217 221 226 231 235 240 243 247 250 253 255 257 259 260 262 263 265 267 269 271 273 274 274 275 275
303 306 309 313 319 320 323 332 338 335 335 338 339 339 342 348 353 357 359 1 4 6 8 11 13 16 18 18 18 19 20 22 24 26 28 32 35 39 43 47 51 55 60 64 68 73 77 80 83 86 88 90 92 95 100 106 115 130 153 177 196 211 221 230 237 242 246 250 252 255 257 259 261 263 264 265 266 268 270 271 271 272 272 272 273 273
298 301 303 307 313 315 315 320 331 334 329 330 331 330 333 339 346 351 354 355 357 0 3 6 9 11 14 16 15 16 18 19 20 22 24 26 29 32 36 40 44 49 53 57 61 65 70 74 78 81 85 88 91 95 99 103 108 113 120 129 143 162 185 202 216 227 236 243 248 252 254 256 258 260 261 263 264 266 267 268 269 269 270 272 273 274
292 296 298 301 306 310 309 310 318 327 327 325 324 323 324 329 336 343 348 349 350 352 355 359 4 6 9 12 13 13 15 17 18 18 19 20 22 24 27 31 35 39 44 49 54 58 62 65 68 72 76 79 83 87 92 98 104 109 115 121 129 144 169 189 202 215 227 236 243 248 252 255 257 260 263 265 267 269 271 271 272 273 274 275 276 278
288 292 294 297 301 304 303 304 308 314 319 321 320 317 316 319 325 333 340 342 342 344 346 348 354 360 4 8 10 10 10 13 15 16 16 16 16 16 18 20 23 26 30 35 40 45 50 54 57 61 64 67 70 72 76 80 86 93 98 101 104 120 166 197 212 226 237 245 251 255 259 262 264 266 268 270 271 272 273 274 276 277 278 279 281 283
284 287 289 293 297 299 300 299 300 304 309 313 316 313 310 311 315 321 329 334 334 335 337 337 341 349 355 -0 5 7 7 7 10 12 13 13 12 12 11 11 12 14 15 18 21 24 29 33 36 39 42 45 48 52 55 59 67 80 87 81 61 35 213 216 236 254 260 262 264 267 269 271 272 272 274 275 276 278 280 283 285 287 288 289 291 292
280 282 284 289 293 296 296 294 294 298 302 305 309 309 305 305 306 309 316 323 326 326 328 328 330 337 344 350 355 360 2 2 3 5 6 7 7 8 8 7 6 6 6 5 6 6 7 9 10 11 12 10 10 10 8 8 9 8 20 19 340 309 294 289 287 285 282 280 280 282 284 285 286 286 286 287 288 290 292 293 293 294 295 295 295 295
276 278 281 286 289 291 291 290 290 294 297 300 302 302 300 300 298 299 305 312 316 316 318 319 320 326 334 339 343 348 352 354 355 356 356 357 358 358 359 359 359 360 0 359 358 357 354 352 351 351 350 349 347 344 339 334 328 320 320 322 310 301 300 299 297 293 291 290 291 292 293 293 294 293 293 293 294 296 296 296 295 296 296 295 296 296
273 276 278 281 284 287 287 285 288 292 295 295 296 296 297 295 291 291 298 305 306 307 309 310 312 317 323 328 332 335 339 342 344 345 344 344 345 345 346 347 346 348 350 350 350 350 349 346 343 339 336 334 332 329 325 321 315 311 310 307 301 298 299 297 295 294 293 294 295 295 295 295 295 294 295 296 297 297 297 297 297 297 297 297 298 298
270 273 275 278 280 282 281 282 286 289 290 291 293 293 291 286 284 287 293 297 299 299 301 303 306 309 314 319 322 324 327 330 332 333 332 331 332 333 334 335 334 335 338 339 340 341 341 341 339 334 328 323 320 316 313 310 307 305 304 302 298 297 296 295 293 293 294 295 295 295 295 295 294 295 296 297 298 298 298 298 298 298 298 298 298 298
268 270 274 276 275 276 279 281 283 283 286 290 291 287 283 281 282 284 288 291 294 294 295 297 301 303 307 310 313 315 318 320 322 323 322 320 321 322 324 324 324 324 327 329 329 329 330 331 331 329 324 318 312 307 304 302 300 299 298 297 295 294 294 293 293 294 295 295 295 295 295 295 296 297 297 297 297 297 297 297 297 298 298 298 298 299
266 270 273 271 270 275 280 279 277 280 285 287 284 280 282 283 281 281 284 289 291 289 289 292 296 299 302 305 307 308 309 310 311 311 311 310 311 312 313 313 312 313 315 317 317 318 319 320 321 319 316 312 308 303 299 297 297 296 295 293 291 290 290 290 291 292 293 294 294 294 295 295 296 297 297 296 297 296 296 297 298 299 299 299 299 300
267 270 271 267 267 274 277 273 274 279 283 282 279 280 281 280 278 280 283 286 286 283 283 287 291 294 298 300 302 303 303 303 303 301 300 300 302 302 302 301 301 302 303 305 305 306 308 309 310 309 306 304 302 298 296 296 297 296 294 291 289 288 287 287 288 288 289 290 291 292 293 294 295 295 295 295 296 296 296 297 298 298 299 299 300 300
269 267 265 266 270 271 269 269 272 277 277 277 278 279 279 278 277 279 280 281 280 278 280 283 286 289 292 295 298 299 299 299 298 296 294 294 295 294 293 293 293 293 294 295 295 296 298 299 299 298 296 296 294 292 291 293 295 295 294 292 290 289 288 287 287 286 286 286 288 289 291 292 292 292 293 294 294 295 295 296 297 297 298 298 299 300
265 263 262 267 271 269 265 265 269 271 272 274 276 278 278 277 276 277 277 277 276 276 278 281 282 284 287 290 293 294 295 295 295 293 291 291 290 290 289 288 287 287 289 290 290 291 291 291 291 289 288 289 288 287 286 287 289 291 293 293 292 290 290 289 288 287 285 285 285 286 287 288 288 289 291 292 292 293 293 294 294 295 296 296 298 299
Height
10425 10423 10423 10422 10422 10423 10424 10425 10427 10430 10433 10435 10439 10443 10447 10452 10456 10459 10461 10463 10468 10476 10483 10491 10500 10511 10521 10528 10533 10538 10545 10553 10563 10572 10580 10589 10598 10606 10611 10618 10625 10632 10638 10643 10651 10659 10666 10673 10680 10687 10692 10697 10703 10707 10709 10711 10712 10709 10711 10714 10717 10720 10723 10727 10730 10731 10732 10733 10734 10734 10736 10738 10740 10742 10744 10745 10746 10747 10748 10748 10749 10749 10749 10751 10751 10752
10421 10419 10417 10416 10416 10416 10418 10419 10420 10422 10424 10426 10429 10432 10436 10439 10442 10446 10449 10450 10454 10462 10470 10476 10484 10495 10505 10512 10517 10524 10533 10541 10549 10558 10566 10574 10583 10591 10599 10606 10613 10621 10627 10633 10640 10648 10655 10662 10669 10676 10682 10688 10694 10698 10700 10704 10707 10705 10704 10707 10708 10707 10711 10719 10722 10722 10723 10723 10724 10724 10726 10730 10732 10734 10736 10737 10738 10739 10739 10740 10741 10742 10742 10743 10744 10744
10419 10416 10413 10412 10411 10411 10411 10412 10413 10415 10416 10418 10421 10424 10427 10430 10432 10435 10437 10439 10442 10450 10458 10463 10471 10481 10489 10497 10503 10509 10519 10528 10534 10542 10550 10558 10567 10577 10585 10593 10600 10608 10616 10623 10629 10636 10644 10651 10657 10665 10672 10679 10685 10688 10691 10696 10699 10697 10696 10699 10698 10695 10701 10711 10715 10715 10715 10715 10715 10715 10718 10722 10725 10727 10728 10729 10730 10730 10732 10732 10733 10734 10734 10735 10736 10737
10418 10414 10411 10408 10407 10406 10406 10406 10407 10408 10409 10411 10413 10416 10418 10420 10422 10424 10426 10427 10432 10440 10447 10451 10458 10468 10475 10481 10490 10496 10504 10513 10520 10527 10535 10543 10553 10564 10571 10578 10587 10595 10603 10611 10618 10625 10633 10640 10647 10654 10660 10667 10674 10679 10682 10687 10688 10687 10689 10691 10689 10688 10695 10704 10708 10709 10709 10709 10708 10708 10711 10714 10717 10719 10720 10721 10721 10721 10723 10724 10725 10726 10726 10727 10728 10728
10417 10413 10409 10406 10404 10403 10402 10401 10401 10401 10403 10404 10405 10408 10409 10410 10413 10416 10417 10417 10422 10429 10436 10439 10442 10453 10461 10465 10474 10481 10487 10497 10504 10512 10521 10528 10538 10548 10555 10565 10574 10582 10590 10598 10605 10612 10620 10628 10635 10642 10648 10655 10663 10668 10673 10677 10678 10678 10681 10684 10683 10683 10689 10694 10699 10702 10702 10702 10704 10703 10704 10707 10709 10710 10711 10712 10713 10714 10715 10716 10716 10717 10718 10719 10720 10720
10416 10412 10408 10405 10402 10400 10398 10397 10397 10397 10397 10397 10399 10400 10401 10402 10404 10409 10409 10409 10412 10418 10424 10425 10427 10440 10451 10451 10460 10467 10472 10482 10489 10496 10506 10513 10521 10530 10540 10552 10560 10568 10576 10585 10592 10599 10606 10614 10622 10630 10637 10643 10650 10656 10662 10667 10668 10669 10672 10676 10677 10678 10681 10685 10689 10692 10694 10695 10696 10696 10698 10701 10701 10701 10702 10703 10705 10706 10707 10708 10708 10708 10710 10711 10712 10712
10418 10413 10408 10404 10401 10398 10396 10394 10393 10393 10392 10392 10393 10393 10394 10395 10396 10400 10402 10401 10404 10408 10413 10414 10416 10430 10440 10440 10447 10454 10459 10468 10474 10481 10493 10501 10507 10516 10528 10538 10546 10554 10562 10570 10578 10585 10593 10601 10609 10617 10624 10631 10637 10643 10650 10655 10659 10660 10662 10666 10669 10671 10674 10676 10679 10681 10684 10687 10688 10689 10692 10693 10693 10693 10694 10696 10697 10698 10698 10698 10699 10700 10702 10702 10704 10705
10421 10417 10411 10405 10401 10397 10394 10392 10390 10389 10388 10387 10387 10387 10387 10388 10389 10391 10393 10394 10396 10398 10403 10407 10408 10417 10428 10433 10437 10443 10449 10457 10463 10471 10483 10491 10496 10506 10515 10523 10531 10540 10547 10555 10563 10571 10579 10587 10596 10604 10611 10618 10625 10631 10638 10643 10648 10650 10653 10656 10660 10663 10665 10667 10670 10672 10675 10678 10681 10683 10683 10683 10684 10684 10686 10688 10689 10689 10689 10689 10690 10691 10693 10694 10695 10697
10422 10417 10413 10408 10402 10397 10394 10391 10389 10387 10385 10384 10383 10382 10382 10382 10383 10384 10385 10387 10388 10391 10396 10399 10395 10399 10417 10428 10427 10430 10438 10444 10452 10463 10474 10480 10485 10492 10500 10508 10516 10523 10531 10539 10548 10557 10564 10572 10581 10590 10597 10605 10613 10620 10626 10632 10637 10641 10644 10647 10650 10653 10656 10658 10661 10664 10666 10670 10672 10673 10673 10673 10674 10676 10678 10680 10681 10681 10681 10681 10682 10684 10685 10685 10687 10688
10423 10417 10412 10407 10403 10398 10393 10390 10387 10385 10383 10381 10379 10379 10378 10377 10378 10378 10379 10380 10381 10385 10388 10385 10382 10389 10410 10424 10419 10416 10425 10434 10443 10451 10459 10465 10469 10476 10485 10492 10499 10506 10515 10524 10532 10540 10548 10556 10566 10575 10584 10593 10600 10607 10614 10620 10625 10630 10635 10638 10641 10643 10646 10649 10652 10655 10657 10660 10662 10662 10662 10662 10665 10668 10670 10672 10673 10673 10673 10674 10675 10676 10677 10678 10679 10680
10427 10420 10413 10407 10402 10398 10393 10389 10386 10383 10381 10379 10377 10376 10374 10373 10373 10373 10373 10373 10374 10378 10379 10377 10380 10388 10406 10419 10412 10406 10411 10420 10426 10432 10440 10447 10451 10459 10469 10477 10484 10491 10499 10509 10517 10524 10532 10541 10551 10562 10571 10580 10588 10595 10602 10608 10613 10618 10624 10628 10631 10633 10636 10639 10642 10644 10647 10650 10652 10652 10652 10652 10656 10660 10662 10665 10666 10665 10666 10667 10668 10669 10670 10670 10671 10672
10432 10425 10417 10410 10404 10398 10394 10390 10386 10383 10380 10377 10375 10373 10372 10370 10370 10369 10368 10368 10369 10371 10372 10373 10377 10381 10393 10404 10398 10391 10393 10397 10404 10413 10421 10429 10435 10443 10453 10461 10468 10474 10481 10490 10499 10508 10517 10527 10538 10548 10556 10564 10573 10581 10588 10594 10599 10606 10611 10616 10619 10622 10624 10627 10631 10634 10636 10639 10641 10643 10643 10644 10647 10651 10654 10657 10658 10657 10658 10659 10660 10661 10662 10662 10662 10663
10439 10431 10423 10416 10409 10401 10396 10391 10387 10384 10381 10378 10375 10372 10370 10368 10367 10366 10365 10365 10365 10366 10367 10369 10371 10373 10382 10391 10386 10380 10382 10386 10393 10403 10409 10413 10419 10426 10433 10443 10451 10456 10463 10472 10482 10493 10503 10513 10524 10533 10540 10548 10558 10567 10574 10580 10585 10592 10598 10603 10606 10609 10612 10616 10619 10623 10625 10628 10631 10634 10635 10636 10639 10643 10646 10648 10649 10649 10650 10650 10652 10653 10654 10654 10654 10654
10446 10439 10430 10423 10415 10408 10401 10395 10389 10385 10381 10378 10375 10372 10370 10367 10365 10363 10362 10361 10361 10361 10362 10363 10365 10366 10372 10379 10373 10369 10375 10380 10383 10393 10401 10405 10410 10414 10419 10426 10434 10439 10447 10456 10467 10478 10489 10499 10509 10517 10525 10533 10543 10553 10560 10567 10572 10578 10584 10589 10594 10597 10601 10605 10609 10612 10615 10619 10622 10624 10625 10627 10631 10635 10637 10638 10640 10641 10642 10642 10643 10644 10646 10646 10646 10646
10451 10445 10437 10429 10422 10414 10408 10400 10394 10389 10384 10380 10376 10373 10370 10367 10365 10363 10361 10359 10358 10358 10358 10358 10359 10360 10364 10367 10363 10362 10369 10372 10375 10382 10391 10397 10402 10408 10412 10415 10421 10428 10436 10445 10455 10466 10478 10487 10495 10504 10513 10521 10531 10540 10547 10554 10561 10566 10571 10576 10581 10585 10590 10595 10599 10602 10605 10609 10611 10613 10616 10618 10621 10625 10628 10629 10631 10631 10633 10634 10635 10636 10637 10637 10638 10638
10455 10448 10442 10435 10428 10421 10414 10407 10401 10395 10389 10383 10379 10375 10371 10368 10365 10363 10360 10358 10356 10355 10355 10355 10355 10355 10358 10358 10356 10359 10363 10365 10369 10374 10381 10387 10392 10397 10402 10409 10417 10424 10431 10439 10448 10459 10469 10477 10485 10494 10503 10511 10520 10529 10536 10543 10549 10554 10558 10564 10569 10573 10578 10584 10588 10592 10595 10598 10600 10602 10606 10609 10612 10615 10618 10620 10622 10622 10624 10626 10627 10628 10628 10629 10629 10629
10459 10453 10446 10440 10433 10427 10420 10413 10407 10401 10394 10389 10383 10378 10373 10369 10366 10363 10360 10358 10355 10354 10353 10352 10352 10351 10353 10353 10352 10355 10358 10359 10363 10367 10372 10378 10382 10386 10393 10402 10411 10418 10425 10433 10442 10451 10460 10467 10475 10483 10492 10501 10509 10518 10525 10530 10535 10541 10546 10552 10559 10564 10568 10573 10577 10581 10585 10588 10590 10593 10596 10599 10602 10606 10609 10611 10612 10613 10615 10617 10618 10619 10619 10620 10621 10621
10464 10457 10451 10444 10438 10431 10425 10418 10411 10405 10400 10395 10389 10383 10377 10372 10368 10364 10361 10358 10356 10354 10352 10350 10349 10348 10349 10349 10348 10350 10353 10354 10357 10360 10364 10369 10374 10381 10387 10393 10401 10409 10417 10424 10432 10440 10448 10456 10463 10472 10481 10490 10498 10506 10512 10517 10523 10529 10536 10543 10549 10554 10559 10562 10566 10570 10574 10578 10581 10584 10587 10590 10593 10596 10599 10601 10602 10603 10606 10608 10609 10609 10611 10611 10612 10613
10468 10461 10455 10449 10443 10436 10430 10423 10416 10409 10404 10399 10393 10388 10382 10377 10372 10367 10363 10359 10356 10354 10352 10350 10349 10347 10346 10345 10345 10346 10349 10350 10351 10354 10358 10362 10368 10374 10378 10384 10392 10399 10405 10412 10421 10430 10439 10448 10455 10463 10472 10479 10487 10494 10500 10505 10512 10519 10526 10533 10539 10544 10548 10552 10557 10560 10564 10568 10571 10575 10578 10581 10583 10586 10589 10591 10593 10594 10597 10599 10600 10600 10601 10602 10603 10604
10472 10466 10460 10453 10447 10440 10434 10427 10421 10415 10409 10403 10397 10392 10387 10381 10377 10371 10366 10362 10358 10355 10352 10350 10348 10346 10345 10343 10343 10343 10345 10346 10346 10348 10352 10357 10361 10366 10370 10376 10383 10390 10396 10403 10412 10421 10430 10439 10446 10453 10460 10468 10475 10482 10487 10494 10501 10509 10516 10522 10528 10533 10537 10542 10547 10551 10555 10558 10562 10566 10568 10571 10574 10576 10579 10582 10585 10587 10588 10590 10591 10592 10592 10593 10594 10595
10475 10469 10463 10457 10450 10444 10438 10432 10426 10420 10414 10408 10401 10395 10390 10385 10380 10375 10370 10366 10361 10357 10354 10351 10348 10346 10344 10343 10342 10342 10342 10342 10343 10344 10347 10351 10355 10360 10364 10370 10376 10383 10389 10394 10402 10410 10419 10428 10436 10442 10449 10457 10464 10471 10477 10485 10492 10500 10507 10512 10517 10522 10527 10532 10537 10542 10546 10550 10553 10556 10559 10562 10565 10567 10571 10574 10577 10579 10580 10580 10582 10583 10583 10585 10586 10586
10478 10472 10466 10460 10454 10447 10441 10436 10430 10424 10418 10412 10406 10400 10395 10389 10383 10378 10374 10369 10364 10360 10357 10353 10350 10348 10345 10343 10342 10341 10341 10340 10341 10342 10343 10346 10350 10354 10358 10364 10370 10376 10382 10387 10393 10401 10409 10418 10426 10432 10440 10448 10456 10463 10470 10477 10484 10491 10496 10501 10507 10512 10517 10522 10527 10532 10537 10540 10544 10547 10550 10553 10556 10559 10563 10566 10569 10571 10572 10572 10574 10575 10576 10577 10577 10577
10480 10475 10470 10464 10458 10452 10446 10440 10434 10428 10422 10416 10410 10405 10399 10393 10388 10383 10378 10372 10368 10364 10361 10357 10353 10350 10347 10344 10342 10341 10340 10339 10339 10339 10341 10343 10346 10349 10353 10358 10363 10369 10375 10381 10388 10396 10403 10411 10418 10425 10433 10441 10448 10455 10461 10468 10474 10480 10486 10491 10498 10503 10508 10513 10519 10524 10528 10532 10535 10538 10542 10545 10548 10552 10555 10558 10560 10563 10564 10565 10566 10567 10568 10569 10569 10568
10482 10477 10472 10468 10462 10456 10450 10444 10438 10432 10426 10420 10415 10409 10403 10397 10392 10387 10381 10377 10372 10368 10363 10359 10355 10352 10349 10346 10343 10341 10339 10338 10338 10338 10339 10341 10343 10346 10349 10354 10358 10363 10369 10376 10384 10392 10399 10406 10413 10420 10426 10434 10441 10447 10454 10460 10466 10472 10478 10484 10490 10495 10500 10506 10510 10515 10519 10523 10527 10530 10533 10537 10540 10544 10547 10550 10553 10555 10556 10557 10558 10559 10560 10560 10560 10560
10484 10479 10474 10470 10465 10459 10454 10448 10442 10436 10430 10425 10420 10415 10409 10404 10398 10392 10387 10382 10377 10372 10367 10363 10358 10355 10351 10348 10345 10343 10341 10339 10338 10337 10338 10340 10341 10343 10346 10351 10355 10360 10366 10372 10379 10387 10394 10402 10409 10415 10421 10428 10435 10441 10447 10453 10459 10465 10471 10476 10481 10487 10493 10498 10503 10508 10512 10515 10518 10522 10525 10529 10533 10536 10539 10542 10545 10547 10548 10549 10550 10551 10552 10552 10551 10551
10485 10481 10477 10472 10468 10463 10458 10453 10447 10442 10436 10431 10426 10421 10416 10411 10405 10399 10394 10388 10382 10377 10372 10367 10363 10359 10355 10351 10348 10346 10343 10341 10339 10338 10338 10340 10341 10343 10345 10348 10353 10358 10363 10369 10376 10383 10390 10398 10405 10411 10417 10423 10429 10435 10441 10447 10452 10458 10463 10469 10475 10480 10486 10491 10496 10501 10504 10507 10510 10514 10518 10521 10525 10528 10531 10534 10537 10539 10540 10541 10542 10543 10543 10544 10543 10543
10487 10482 10478 10474 10470 10466 10461 10457 10452 10447 10442 10437 10432 10427 10421 10416 10411 10406 10400 10394 10389 10384 10378 10373 10369 10364 10360 10356 10353 10350 10347 10344 10342 10340 10340 10341 10342 10344 10346 10348 10352 10356 10362 10368 10374 10381 10387 10394 10400 10406 10412 10418 10424 10430 10436 10442 10447 10452 10458 10463 10469 10474 10479 10484 10489 10493 10496 10499 10503 10506 10510 10514 10518 10521 10524 10526 10529 10530 10531 10532 10533 10534 10535 10535 10535 10535
10489 10485 10480 10475 10471 10467 10464 10460 10456 10451 10447 10442 10437 10432 10426 10421 10416 10411 10406 10401 10396 10391 10385 10380 10376 10371 10367 10362 10358 10355 10351 10349 10346 10345 10343 10343 10344 10346 10348 10350 10353 10356 10361 10366 10372 10378 10385 10391 10397 10403 10409 10415 10420 10426 10432 10437 10443 10448 10453 10457 10463 10468 10472 10477 10481 10484 10488 10491 10495 10500 10504 10508 10511 10514 10517 10519 10520 10521 10522 10524 10525 10526 10526 10526 10527 10527
10490 10486 10483 10478 10474 10470 10465 10462 10458 10454 10450 10446 10441 10436 10431 10426 10421 10416 10411 10407 10402 10397 10392 10387 10383 10377 10372 10368 10364 10360 10357 10354 10351 10350 10348 10347 10347 10348 10350 10352 10355 10358 10362 10366 10371 10376 10382 10388 10394 10399 10405 10411 10416 10422 10428 10433 10438 10443 10447 10452 10457 10462 10466 10470 10473 10477 10481 10485 10489 10494 10498 10501 10505 10507 10509 10511 10512 10513 10514 10515 10516 10517 10517 10518 10519 10519
10490 10487 10484 10480 10476 10472 10468 10464 10460 10457 10453 10449 10445 10440 10435 10431 10426 10421 10417 10412 10408 10403 10399 10395 10390 10384 10379 10375 10371 10367 10363 10360 10357 10355 10353 10352 10352 10352 10353 10355 10358 10361 10364 10368 10372 10377 10382 10387 10392 10398 10403 10409 10414 10419 10424 10428 10433 10437 10442 10446 10451 10456 10459 10463 10467 10471 10475 10480 10484 10488 10492 10495 10498 10500 10501 10502 10504 10505 10506 10507 10508 10509 10509 10510 10510 10510
10490 10487 10484 10481 10477 10474 10470 10466 10462 10458 10455 10452 10448 10444 10440 10435 10431 10427 10422 10418 10414 10410 10406 10402 10397 10392 10388 10383 10378 10374 10370 10367 10363 10361 10359 10358 10357 10357 10358 10359 10361 10363 10366 10370 10374 10378 10383 10387 10392 10397 10401 10405 10410 10415 10419 10424 10428 10433 10437 10442 10446 10450 10453 10457 10461 10466 10470 10475 10479 10483 10486 10489 10490 10492 10494 10495 10496 10497 10498 10500 10501 10501 10501 10502 10502 10502
10489 10487 10484 10481 10478 10474 10471 10467 10464 10460 10456 10453 10450 10447 10443 10439 10435 10431 10427 10423 10419 10415 10412 10408 10404 10400 10396 10391 10387 10383 10379 10375 10371 10368 10366 10364 10363 10363 10363 10364 10365 10367 10369 10372 10375 10379 10383 10386 10390 10394 10398 10401 10406 10410 10414 10419 10423 10428 10432 10436 10439 10443 10447 10452 10457 10461 10465 10469 10473 10477 10479 10481 10483 10485 10486 10487 10489 10490 10492 10494 10494 10494 10493 10494 10494 10494
10488 10486 10483 10481 10478 10475 10471 10468 10465 10461 10457 10454 10451 10448 10445 10442 10439 10435 10432 10428 10424 10421 10417 10413 10410 10406 10403 10400 10396 10392 10388 10384 10380 10377 10374 10372 10371 10370 10369 10369 10370 10371 10373 10375 10378 10380 10383 10386 10390 10393 10396 10399 10403 10407 10411 10415 10419 10423 10426 10430 10435 10439 10444 10448 10452 10456 10460 10464 10467 10470 10472 10475 10476 10478 10479 10481 10483 10485 10486 10486 10486 10486 10485 10486 10485 10484
10487 10485 10482 10480 10478 10475 10472 10468 10465 10462 10459 10455 10452 10450 10447 10445 10442 10439 10436 10432 10429 10426 10422 10419 10416 10412 10409 10406 10403 10399 10396 10392 10389 10386 10384 10382 10380 10378 10377 10377 10376 10377 10378 10379 10381 10383 10385 10387 10390 10393 10395 10398 10401 10405 10408 10412 10415 10419 10423 10427 10431 10435 10439 10443 10447 10451 10455 10458 10461 10464 10467 10469 10470 10472 10474 10476 10477 10478 10478 10478 10477 10477 10477 10477 10477 10475
10484 10483 10481 10479 10477 10475 10472 10469 10466 10463 10460 10456 10453 10451 10448 10446 10444 10441 10439 10436 10433 10430 10427 10423 10420 10418 10415 10412 10409 10406 10403 10400 10397 10394 10392 10390 10388 10387 10385 10384 10384 10384 10384 10385 10385 10387 10388 10390 10392 10394 10396 10398 10401 10404 10407 10409 10412 10416 10419 10423 10427 10430 10434 10438 10443 10447 10450 10454 10456 10458 10461 10463 10464 10466 10468 10469 10471 10470 10470 10469 10469 10469 10470 10470 10469 10468
10481 10480 10479 10477 10475 10473 10472 10469 10466 10463 10460 10457 10454 10452 10449 10447 10445 10443 10441 10438 10436 10434 10431 10428 10425 10422 10420 10417 10415 10412 10409 10407 10404 10401 10399 10397 10396 10394 10392 10391 10391 10390 10390 10390 10391 10391 10392 10393 10395 10396 10398 10400 10402 10404 10407 10410 10412 10415 10418 10421 10425 10428 10432 10436 10440 10443 10446 10449 10451 10453 10456 10457 10459 10460 10462 10463 10463 10463 10462 10462 10463 10463 10464 10463 10462 10461
10478 10477 10476 10475 10473 10472 10470 10469 10466 10463 10460 10458 10455 10452 10450 10448 10446 10444 10442 10440 10438 10436 10433 10431 10429 10426 10424 10421 10419 10417 10415 10412 10410 10408 10406 10404 10402 10400 10399 10397 10397 10396 10395 10395 10395 10396 10396 10397 10398 10399 10401 10402 10404 10406 10408 10411 10413 10416 10418 10421 10425 10428 10431 10434 10437 10440 10443 10445 10447 10450 10451 10453 10454 10455 10456 10457 10457 10456 10456 10457 10457 10457 10457 10456 10454 10453
10476 10474 10473 10472 10472 10470 10468 10467 10466 10463 10460 10457 10455 10452 10450 10448 10446 10444 10442 10440 10439 10437 10435 10433 10432 10430 10428 10425 10423 10421 10419 10417 10416 10414 10412 10410 10408 10407 10405 10404 10402 10401 10401 10400 10400 10400 10400 10401 10402 10402 10404 10405 10407 10408 10410 10412 10415 10417 10420 10422 10425 10428 10431 10433 10436 10438 10441 10443 10444 10446 10447 10449 10450 10450 10451 10451 10451 10451 10451 10451 10451 10450 10449 10448 10446 10445
10473 10471 10469 10469 10469 10467 10465 10465 10464 10463 10459 10456 10454 10452 10450 10448 10446 10444 10442 10440 10439 10438 10436 10435 10433 10432 10430 10428 10426 10424 10422 10421 10419 10418 10417 10416 10414 10413 10411 10410 10409 10408 10407 10406 10405 10405 10405 10405 10406 10407 10408 10409 10410 10411 10413 10415 10417 10419 10421 10423 10426 10428 10430 10432 10434 10436 10438 10439 10441 10442 10443 10444 10445 10445 10445 10445 10445 10445 10445 10444 10444 10443 10442 10441 10440 10438
10469 10468 10466 10464 10465 10465 10463 10461 10461 10461 10459 10456 10453 10450 10448 10447 10446 10444 10442 10440 10438 10437 10436 10435 10435 10433 10432 10431 10429 10427 10426 10424 10422 10421 10420 10419 10418 10418 10417 10416 10415 10414 10413 10412 10411 10411 10411 10410 10411 10411 10412 10413 10414 10415 10416 10418 10419 10421 10423 10424 10426 10428 10429 10431 10432 10434 10435 10437 10438 10439 10439 10440 10440 10441 10440 10440 10441 10440 10440 10439 10438 10438 10436 10435 10434 10432
10465 10465 10463 10461 10461 10461 10460 10458 10457 10458 10458 10455 10452 10449 10446 10445 10444 10444 10442 10441 10439 10437 10435 10434 10434 10434 10433 10432 10431 10429 10428 10427 10425 10424 10423 10422 10421 10420 10420 10419 10419 10419 10418 10418 10417 10417 10416 10416 10416 10416 10417 10417 10418 10419 10419 10421 10422 10423 10424 10426 10427 10428 10429 10430 10432 10433 10434 10435 10435 10436 10436 10437 10437 10437 10437 10437 10437 10436 10435 10435 10434 10432 10431 10429 10427 10425
10461 10460 10459 10458 10457 10457 10456 10454 10453 10453 10454 10454 10452 10448 10444 10441 10441 10441 10442 10441 10438 10436 10434 10432 10432 10432 10433 10432 10431 10430 10429 10428 10427 10426 10425 10424 10423 10422 10422 10421 10421 10421 10420 10420 10420 10420 10420 10420 10420 10420 10421 10421 10421 10422 10423 10423 10424 10425 10426 10427 10428 10428 10429 10430 10431 10432 10432 10433 10433 10433 10434 10434 10434 10434 10434 10433 10432 10431 10430 10429 10428 10427 10425 10423 10421 10419
10455 10455 10455 10454 10454 10453 10451 10449 10449 10450 10450 10450 10450 10448 10444 10440 10437 10437 10438 10439 10438 10436 10434 10432 10430 10430 10431 10431 10430 10430 10429 10428 10427 10427 10426 10426 10425 10424 10423 10423 10422 10422 10422 10421 10421 10421 10421 10422 10422 10422 10423 10423 10423 10424 10424 10425 10425 10426 10427 10428 10427 10427 10428 10429 10430 10430 10430 10430 10430 10430 10430 10430 10429 10429 10428 10427 10426 10426 10424 10423 10422 10420 10418 10416 10414 10412
10449 10449 10451 10450 10449 10449 10447 10444 10444 10446 10446 10446 10446 10445 10443 10439 10435 10433 10434 10435 10436 10435 10433 10431 10429 10428 10428 10428 10428 10428 10428 10427 10427 10426 10425 10425 10425 10424 10424 10423 10423 10423 10422 10422 10422 10422 10421 10422 10422 10422 10422 10422 10423 10423 10424 10424 10424 10425 10426 10426 10426 10425 10426 10426 10426 10426 10426 10426 10426 10426 10425 10425 10424 10423 10422 10421 10420 10419 10418 10416 10415 10414 10412 10410 10407 10405
10442 10442 10446 10446 10444 10445 10442 10438 10439 10441 10442 10442 10442 10441 10440 10437 10433 10429 10430 10431 10430 10431 10431 10430 10429 10427 10426 10425 10425 10425 10425 10425 10425 10425 10424 10423 10423 10423 10422 10422 10422 10422 10422 10422 10421 10421 10421 10421 10421 10421 10421 10421 10421 10421 10421 10422 10422 10422 10423 10424 10423 10423 10423 10423 10422 10422 10422 10421 10421 10421 10420 10419 10418 10417 10416 10415 10414 10412 10410 10409 10407 10405 10403 10401 10399 10397
10438 10436 10440 10441 10440 10440 10436 10432 10434 10437 10437 10437 10438 10437 10436 10434 10430 10426 10426 10427 10426 10425 10426 10427 10427 10426 10425 10424 10423 10422 10422 10422 10422 10422 10422 10421 10421 10421 10420 10420 10420 10419 10419 10419 10419 10419 10419 10419 10419 10419 10419 10418 10418 10418 10418 10418 10418 10419 10419 10420 10419 10419 10418 10418 10417 10417 10417 10416 10415 10415 10414 10413 10412 10410 10409 10408 10406 10404 10402 10400 10399 10397 10394 10392 10390 10388
10431 10430 10434 10435 10434 10434 10431 10427 10428 10430 10431 10433 10433 10432 10431 10430 10427 10423 10421 10422 10422 10421 10420 10421 10422 10423 10422 10422 10422 10420 10419 10419 10418 10418 10418 10418 10418 10418 10417 10417 10417 10416 10416 10417 10416 10416 10416 10416 10416 10416 10416 10415 10415 10415 10414 10414 10413 10414 10414 10414 10414 10414 10413 10412 10412 10411 10410 10410 10409 10408 10407 10405 10404 10403 10402 10400 10398 10396 10394 10392 10390 10388 10386 10383 10380 10378
10424 10425 10429 10427 10427 10429 10426 10420 10421 10425 10427 10427 10426 10426 10426 10424 10423 10420 10417 10417 10418 10417 10415 10415 10416 10417 10417 10418 10418 10417 10417 10416 10416 10415 10415 10414 10414 10414 10414 10414 10413 10413 10412 10413 10413 10412 10412 10412 10412 10412 10412 10411 10411 10410 10409 10409 10408 10409 10409 10409 10409 10408 10407 10407 10406 10405 10404 10403 10402 10401 10399 10398 10397 10395 10394 10392 10390 10388 10385 10383 10381 10379 10377 10374 10371 10368
10418 10422 10421 10415 10420 10426 10420 10411 10414 10422 10423 10419 10417 10419 10420 10418 10417 10415 10413 10413 10413 10411 10411 10411 10411 10412 10412 10412 10413 10413 10412 10412 10412 10411 10411 10410 10410 10410 10410 10409 10409 10409 10409 10409 10408 10408 10407 10407 10407 10407 10407 10406 10406 10405 10404 10403 10403 10403 10403 10403 10403 10402 10401 10400 10400 10399 10398 10396 10395 10393 10392 10391 10389 10387 10385 10383 10381 10379 10377 10374 10372 10370 10368 10364 10361 10358
10410 10415 10410 10405 10414 10421 10411 10403 10410 10418 10417 10411 10409 10413 10413 10410 10410 10410 10409 10409 10408 10406 10406 10407 10407 10407 10407 10406 10407 10407 10406 10406 10407 10406 10405 10405 10405 10406 10405 10405 10404 10404 10404 10405 10404 10403 10403 10402 10402 10401 10401 10400 10400 10400 10398 10397 10397 10397 10397 10397 10396 10396 10395 10394 10393 10392 10390 10389 10387 10386 10385 10383 10381 10379 10377 10375 10373 10371 10369 10366 10363 10361 10358 10354 10351 10347
10399 10403 10403 10403 10408 10409 10401 10398 10405 10411 10410 10404 10402 10406 10406 10403 10402 10402 10402 10402 10402 10400 10401 10402 10402 10402 10402 10401 10401 10401 10399 10399 10400 10400 10399 10399 10399 10400 10400 10399 10399 10398 10398 10399 10399 10398 10398 10397 10396 10395 10394 10394 10394 10393 10392 10391 10391 10390 10390 10390 10390 10389 10388 10387 10386 10384 10382 10380 10379 10377 10376 10375 10372 10370 10369 10367 10364 10362 10360 10357 10354 10351 10348 10344 10340 10337